Starlink 31200

operational
NORAD ID: 58862 Int'l Des: 2024-019 Owner: SPXS Country: US Constellation: starlink
LEOCIRCULAR

About Starlink 31200

Description loading...

Live Position

Loading 3D Globe...

Upcoming Passes

Altitude History

Altitude vs Time

uPlot chart will show altitude changes over time

Two-Line Element Set

1 58862U 24019K 25314.03420857 .00000923 00000-0 43085-4 0 9997
2 58862 43.0037 204.5893 0001275 262.4336 97.6371 15.27563344100789
Epoch: Nov 10, 2025 • Age: 38 hours

Current Status

Altitude 483.4 km
Velocity 7.63 km/s
Sub-Earth Point -4.22°S, 76.63°W
Launch Date Jan 29, 2024
Age 1.7 years
Type internet

Technical Details

Classification Payload
Mass 730.00 kg
Dry Mass 700.00 kg
Total Mass 730.00 kg
Length 0.30 m
Diameter 4.10 m
Span 29.00 m
Shape Box + pan
Manufacturer SPXS
Bus Type Starlink V2M
Phase Status In Orbit
Owner/State SPXS/US

Large Constellations

Loading constellations...